Weather History for Alexander City, AL

Change the Weather History Date:

Monday, March 3, 2014

  Actual Average (KAUO) Record (KAUO)
Temperature  
Mean Temperature 48 °F -  
Max Temperature 62 °F - 83 °F (1976)
Min Temperature 35 °F - 12 °F (1980)
Degree Days  
Heating Degree Days 16    
Month to date heating degree days  
Since 1 July heating degree days  
Cooling Degree Days 0    
Month to date cooling degree days  
Year to date cooling degree days  
Moisture  
Dew Point 41 °F    
Average Humidity 76    
Maximum Humidity 85    
Minimum Humidity 60    
Precipitation  
Precipitation 0.14 in - 5.32 in (2001)
Month to date precipitation  
Year to date precipitation  
Sea Level Pressure  
Sea Level Pressure 30.03 in    
Wind  
Wind Speed 10 mph (WNW)    
Max Wind Speed 17 mph    
Max Gust Speed 25 mph    
Visibility 9 miles    
Events Rain    
T = Trace of Precipitation, MM = Missing Value Source: NWS Daily Summary

Daily Weather History Graph

Daily Weather History Graph

Search for Another Location

Airport:

Trip Planner

Search our weather history database for the weather conditions in past years. The results will help you decide how hot, cold, wet, or windy it might be!

Date:

Astronomy

Mar. 03, 2014 Rise Set
Actual Time 6:09 AM CST 5:42 PM CST
Civil Twilight 5:44 AM CST 6:07 PM CST
Nautical Twilight 5:16 AM CST 6:36 PM CST
Astronomical Twilight 4:47 AM CST 7:04 PM CST
Moon 7:27 AM CST (3/3) 8:33 PM CST (3/3)
Length of Visible Light 12h 22m
Length of Day
11h 33m
Waxing Crescent, 8% of the Moon is Illuminated
Mar 3
Waxing Crescent
Mar 8
First Quarter
Mar 16
Full
Mar 23
Last Quarter
Mar 30
New

Hourly Weather History & Observations

Time (CST) Temp. Windchill Dew Point Humidity Pressure Visibility Wind Dir Wind Speed Gust Speed Precip Events Conditions
12:15 AM 61.7 °F - 47.8 °F 60% 29.97 in 10.0 mi SSW 5.8 mph - N/A   Mostly Cloudy
12:35 AM 62.8 °F - 50.2 °F 63% 29.96 in 10.0 mi SSW 6.9 mph - N/A   Overcast
12:55 AM 62.8 °F - 51.1 °F 66% 29.95 in 10.0 mi SSW 9.2 mph - N/A   Overcast
1:15 AM 62.8 °F - 52.2 °F 68% 29.94 in 10.0 mi SSW 9.2 mph - N/A   Mostly Cloudy
1:35 AM 61.7 °F - 52.2 °F 71% 29.93 in 10.0 mi SSW 10.4 mph - N/A   Clear
1:55 AM 61.7 °F - 53.1 °F 73% 29.92 in 10.0 mi SSW 10.4 mph - N/A   Clear
2:15 AM 61.7 °F - 53.4 °F 74% 29.89 in 10.0 mi SSW 9.2 mph 16.1 mph N/A   Clear
2:35 AM 61.7 °F - 53.8 °F 75% 29.87 in 10.0 mi SSW 10.4 mph 17.3 mph N/A   Scattered Clouds
2:55 AM 61.7 °F - 54.0 °F 76% 29.86 in 10.0 mi South 10.4 mph 18.4 mph N/A   Mostly Cloudy
3:15 AM 62.6 °F - 54.9 °F 76% 29.86 in 10.0 mi SSW 11.5 mph 17.3 mph N/A   Overcast
3:35 AM 61.9 °F - 54.5 °F 77% 29.86 in 10.0 mi SSW 8.1 mph - N/A   Overcast
3:55 AM 62.8 °F - 55.8 °F 78% 29.87 in 10.0 mi SW 9.2 mph 19.6 mph N/A   Overcast
4:15 AM 62.8 °F - 55.9 °F 78% 29.87 in 10.0 mi SW 12.7 mph 17.3 mph N/A   Overcast
4:35 AM 61.9 °F - 56.3 °F 82% 29.88 in 10.0 mi WSW 13.8 mph 20.7 mph N/A Rain Rain
4:55 AM 61.7 °F - 56.5 °F 83% 29.90 in 5.0 mi SW 9.2 mph - 0.02 in Rain Light Rain
5:15 AM 61.7 °F - 56.7 °F 84% 29.90 in 7.0 mi SSW 6.9 mph - 0.03 in Rain Light Rain
5:35 AM 60.8 °F - 56.3 °F 85% 29.91 in 4.0 mi SSW 5.8 mph - 0.08 in Rain Rain
5:55 AM 60.8 °F - 56.3 °F 85% 29.89 in 7.0 mi SW 3.5 mph - 0.10 in Rain Light Rain
6:20 AM 61.7 °F - 57.2 °F 85% 29.86 in 7.0 mi South 5.8 mph - 0.01 in Rain Light Rain
6:35 AM 61.7 °F - 57.2 °F 85% 29.86 in 10.0 mi SSW 10.4 mph - 0.01 in   Overcast
6:55 AM 61.7 °F - 57.0 °F 85% 29.88 in 10.0 mi SSW 11.5 mph - 0.01 in   Overcast
7:15 AM 61.9 °F - 57.2 °F 85% 29.89 in 10.0 mi SW 13.8 mph 19.6 mph N/A   Overcast
7:35 AM 61.9 °F - 57.2 °F 85% 29.89 in 1.5 mi SW 9.2 mph 19.6 mph N/A   Drizzle
7:55 AM 61.7 °F - 56.8 °F 84% 29.90 in 1.5 mi SW 9.2 mph - N/A   Heavy Drizzle
8:15 AM 61.7 °F - 57.2 °F 85% 29.91 in 2.5 mi West 16.1 mph 20.7 mph 0.01 in   Drizzle
8:35 AM 61.5 °F - 56.3 °F 83% 29.92 in 3.0 mi West 13.8 mph 20.7 mph 0.01 in   Light Drizzle
8:55 AM 60.3 °F - 55.0 °F 83% 29.94 in 5.0 mi West 17.3 mph 21.9 mph 0.01 in   Haze
9:15 AM 56.5 °F - 50.4 °F 80% 29.96 in 1.8 mi WNW 15.0 mph 25.3 mph N/A   Drizzle
9:35 AM 51.1 °F - 46.0 °F 83% 29.99 in 2.5 mi WNW 16.1 mph 24.2 mph N/A   Light Drizzle
9:55 AM 50.2 °F - 45.3 °F 83% 30.00 in 3.0 mi NW 15.0 mph 20.7 mph N/A   Haze
10:15 AM 49.3 °F - 44.2 °F 83% 30.02 in 5.0 mi WNW 11.5 mph 18.4 mph N/A   Haze
10:35 AM 47.7 °F - 42.3 °F 82% 30.03 in 10.0 mi WNW 10.4 mph 18.4 mph N/A   Overcast
11:00 AM 47.7 °F - 41.9 °F 80% 30.03 in 10.0 mi NW 15.0 mph 20.7 mph N/A   Overcast
11:15 AM 47.7 °F - 41.0 °F 78% 30.04 in 10.0 mi NW 16.1 mph 21.9 mph N/A   Overcast
11:35 AM 47.7 °F - 40.5 °F 76% 30.04 in 10.0 mi NW 13.8 mph 19.6 mph N/A   Overcast
11:55 AM 45.1 °F 38.8 °F 37.8 °F 75% 30.04 in 10.0 mi NW 13.8 mph 17.3 mph N/A   Overcast
12:15 PM 44.1 °F 37.7 °F 36.7 °F 75% 30.05 in 10.0 mi WNW 12.7 mph 18.4 mph N/A   Overcast
12:35 PM 44.1 °F 37.1 °F 35.8 °F 73% 30.05 in 10.0 mi NNW 15.0 mph 23.0 mph N/A   Overcast
12:55 PM 43.3 °F 36.8 °F 35.8 °F 75% 30.06 in 10.0 mi NNW 12.7 mph 20.7 mph N/A   Overcast
1:15 PM 42.8 °F 35.4 °F 35.6 °F 76% 30.06 in 10.0 mi NW 15.0 mph 18.4 mph N/A   Overcast
1:35 PM 42.8 °F 36.6 °F 36.0 °F 77% 30.06 in 10.0 mi NW 11.5 mph 20.7 mph N/A   Overcast
1:55 PM 42.8 °F 38.0 °F 35.6 °F 76% 30.06 in 10.0 mi NW 8.1 mph - N/A   Overcast
2:15 PM 41.4 °F 36.2 °F 34.7 °F 77% 30.06 in 10.0 mi NNW 8.1 mph 17.3 mph N/A   Overcast
2:35 PM 41.4 °F 35.7 °F 34.3 °F 76% 30.07 in 10.0 mi NW 9.2 mph - N/A   Overcast
2:55 PM 40.6 °F 34.8 °F 32.9 °F 74% 30.07 in 10.0 mi WNW 9.2 mph 18.4 mph N/A   Overcast
3:15 PM 40.1 °F 33.6 °F 32.0 °F 73% 30.08 in 10.0 mi NW 10.4 mph 17.3 mph N/A   Overcast
3:35 PM 40.1 °F 33.2 °F 32.2 °F 73% 30.09 in 10.0 mi NNW 11.5 mph 16.1 mph N/A   Overcast
3:55 PM 40.1 °F 33.6 °F 32.0 °F 73% 30.11 in 10.0 mi NW 10.4 mph 18.4 mph N/A   Overcast
4:15 PM 40.1 °F 33.2 °F 31.6 °F 72% 30.11 in 10.0 mi NW 11.5 mph 16.1 mph N/A   Overcast
4:35 PM 40.1 °F 34.7 °F 31.6 °F 72% 30.11 in 10.0 mi NNW 8.1 mph - N/A   Overcast
4:55 PM 40.1 °F 32.7 °F 31.1 °F 70% 30.11 in 10.0 mi North 12.7 mph 17.3 mph N/A   Overcast
5:15 PM 40.1 °F 32.7 °F 31.1 °F 70% 30.12 in 10.0 mi NNW 12.7 mph - N/A   Overcast
5:35 PM 39.7 °F 31.5 °F 31.1 °F 71% 30.13 in 10.0 mi NNW 15.0 mph 19.6 mph N/A   Overcast
5:55 PM 37.6 °F 29.6 °F 28.9 °F 71% 30.13 in 10.0 mi North 12.7 mph 18.4 mph N/A   Overcast
6:15 PM 37.6 °F 30.0 °F 29.3 °F 72% 30.14 in 10.0 mi NW 11.5 mph - N/A   Overcast
6:35 PM 37.6 °F 30.5 °F 29.7 °F 73% 30.14 in 10.0 mi North 10.4 mph - N/A   Overcast
6:55 PM 37.6 °F 29.6 °F 29.3 °F 72% 30.14 in 10.0 mi North 12.7 mph - N/A   Overcast
7:15 PM 37.6 °F 29.6 °F 29.3 °F 72% 30.16 in 10.0 mi NNW 12.7 mph - N/A   Overcast
7:35 PM 37.6 °F 29.6 °F 29.7 °F 73% 30.16 in 10.0 mi North 12.7 mph 18.4 mph N/A   Overcast
7:55 PM 37.6 °F 30.0 °F 29.8 °F 74% 30.17 in 10.0 mi NNW 11.5 mph - N/A   Overcast
8:15 PM 37.0 °F 29.3 °F 29.7 °F 75% 30.17 in 10.0 mi NNW 11.5 mph - N/A   Overcast
8:35 PM 36.5 °F 27.0 °F 28.8 °F 74% 30.17 in 10.0 mi North 16.1 mph 19.6 mph N/A   Overcast
8:55 PM 35.1 °F 27.4 °F 27.9 °F 75% 30.17 in 10.0 mi North 10.4 mph - N/A   Overcast
9:15 PM 35.1 °F 27.4 °F 27.5 °F 74% 30.16 in 10.0 mi North 10.4 mph - N/A   Overcast
9:35 PM 35.1 °F 26.9 °F 27.5 °F 74% 30.17 in 10.0 mi North 11.5 mph - N/A   Overcast
9:55 PM 35.1 °F 27.9 °F 27.9 °F 75% 30.17 in 10.0 mi North 9.2 mph - N/A   Overcast
10:15 PM 35.1 °F 27.4 °F 27.9 °F 75% 30.17 in 10.0 mi North 10.4 mph - N/A   Overcast
10:35 PM 35.1 °F 27.9 °F 27.7 °F 74% 30.18 in 10.0 mi North 9.2 mph - N/A   Overcast
10:55 PM 35.1 °F 30.1 °F 27.5 °F 74% 30.16 in 10.0 mi North 5.8 mph - N/A   Overcast
11:15 PM 35.1 °F 29.3 °F 27.5 °F 74% 30.18 in 10.0 mi NNW 6.9 mph - N/A   Overcast
11:35 PM 35.1 °F 30.1 °F 27.5 °F 74% 30.17 in 10.0 mi North 5.8 mph - N/A   Overcast
11:55 PM 35.1 °F 30.1 °F 27.3 °F 73% 30.17 in 10.0 mi North 5.8 mph - N/A   Overcast